Location: Abantos
(40.6167°N, 4.1500°W)
Time: 23:14:46
(UTC+00:00)

Daily predictions for brighter satellites

Satellite Brightness Start Highest point End
(mag) Time Altitude Azimuth Time Altitude Azimuth Time Altitude Azimuth
Cosmos 2227 Rocket 3.6 18:12:44 10° NW 18:18:04 45° WSW 18:23:24 10° S
NOAA 6 4.5 18:15:34 10° S 18:20:41 69° WSW 18:25:51 10° NNW
PSLV R/B 4.1 18:17:45 10° SE 18:21:11 38° ENE 18:24:36 10° N
Cosmos 2322 Rocket 3.5 18:17:29 10° SE 18:21:19 19° E 18:25:09 10° ENE
Cosmos 1726 2.5 18:18:01 10° SSE 18:21:25 38° E 18:24:50 10° NNE
Cosmos 1470 4.4 18:24:20 10° ESE 18:26:18 14° E 18:28:15 10° NE
Cosmos 1980 Rocket 2.6 18:21:22 10° SSW 18:26:59 68° WNW 18:32:35 10° NNE
CZ-4B R/B 3.7 18:22:29 10° SE 18:27:26 39° ENE 18:32:29 10° N
Cosmos 841 Rocket 3.4 18:24:30 10° NNW 18:29:41 70° ENE 18:34:47 10° SSE
Cosmos 1378 Rocket 3.8 18:27:02 10° N 18:31:14 44° ENE 18:35:23 10° SSE
Timation 2 Rocket 4.0 18:26:15 10° NNW 18:32:36 62° ENE 18:38:39 10° SE
ARGOS Delta rocket 4.1 18:28:33 10° NNE 18:33:37 51° E 18:38:22 10° S
DMSP B5D2-2 4.2 18:29:08 10° NNE 18:34:26 85° WNW 18:39:41 10° SSW
Meteor 2-14 Rocket 4.4 18:31:54 10° S 18:37:53 66° E 18:43:54 10° NNE
Cosmos 1733 Rocket 3.5 18:35:51 10° SSW 18:40:16 68° W 18:44:42 10° N
COBE Rocket 3.9 18:40:46 10° SSE 18:45:31 56° ENE 18:50:10 10° N
USA 215 4.1 18:40:28 10° NE 18:46:41 48° NNW 18:52:53 10° WSW
Cosmos 2221 Rocket 3.8 18:44:46 10° N 18:49:19 81° W 18:53:51 10° S
Cosmos 2279 Rocket 4.3 18:43:40 10° NNW 18:49:55 72° W 18:56:08 10° S
Cosmos 2278 3.9 18:44:41 10° SSW 18:50:23 81° WNW 18:56:05 10° NNE
Cosmos 1844 Rocket 4.1 18:46:36 10° N 18:50:38 19° NE 18:52:59 15° E
SL-16 R/B 2.4 18:45:50 10° S 18:51:13 48° ESE 18:56:40 10° NE
PAYLOAD B 4.3 18:47:53 10° SSE 18:53:24 86° WSW 18:58:56 10° NNW
Cosmos 1092 Rocket 4.4 18:48:52 10° SSE 18:54:35 38° E 19:00:18 10° NNE
Cosmos 1570 Rocket 4.4 18:51:33 10° N 18:56:31 41° ENE 19:00:57 12° SE
Meteor 2-21 Rocket 4.3 18:54:35 10° S 19:00:35 70° E 19:06:36 10° NNE
SJ-6B 4.4 19:02:07 17° ENE 19:02:07 17° ENE 19:04:06 10° NNE
HJ-1C 3.1 18:59:37 10° SSE 19:02:40 60° ENE 19:05:45 10° N
DMSP B5D1-3 4.5 18:58:31 10° NNE 19:03:36 63° ESE 19:08:39 10° S
Cosmos 1437 Rocket 2.6 19:00:01 10° S 19:03:41 59° E 19:07:22 10° NNE
COSMO-SKYMED 1 4.2 19:00:14 10° N 19:04:14 37° WNW 19:08:13 10° SW
Cosmos 2263 Rocket 2.5 19:04:36 10° NNW 19:10:16 70° WSW 19:15:55 10° SSE
Meteor 1-24 Rocket 3.9 19:07:17 10° N 19:12:19 42° ENE 19:16:12 16° SE
IRIDIUM 104 4.4 19:08:41 10° S 19:13:53 79° W 19:19:08 10° N
Meteor 2-16 Rocket 4.4 19:08:26 10° S 19:14:32 76° E 19:20:41 10° N
OAO 2 Rocket 3.9 19:10:06 10° WSW 19:14:45 44° S 19:17:05 25° SE
Feng Yun 1-1 Rocket 4.2 19:09:54 10° SSE 19:15:18 62° ENE 19:20:38 10° N
SL-4 R/B 2.3 19:11:17 10° NW 19:15:45 65° NNE 19:17:52 31° ESE
Cosmos 2084 Rocket 4.3 19:16:14 10° NNW 19:19:37 28° NE 19:19:51 28° NE
USA 267 3.3 19:14:27 15° SE 19:19:59 88° SW 19:26:35 10° NW
Cosmos 1814 Rocket 4.0 19:14:55 10° NNW 19:20:10 83° WSW 19:25:19 10° SSE
Okean-O 3.6 19:20:29 27° ENE 19:20:29 27° ENE 19:24:04 10° N
Cosmos 1486 Rocket 4.5 19:15:58 10° SSE 19:20:48 37° ESE 19:25:42 10° NE
CZ-4 R/B 1.3 19:17:17 10° SSE 19:21:28 80° ENE 19:25:39 10° N
ISS -2.6 19:19:46 10° WNW 19:22:57 39° SW 19:24:26 24° S
IGS 5A 4.3 19:24:37 30° ENE 19:24:37 30° ENE 19:27:48 10° N
DNEPR-1 R/B 3.7 19:20:22 10° SSW 19:24:46 61° ESE 19:30:03 10° NE
Cosmos 2208 Rocket 4.1 19:19:56 10° NNW 19:25:15 58° ENE 19:28:16 26° SE
Meteor 1-22 Rocket 4.0 19:20:35 10° S 19:25:55 73° E 19:31:31 10° NNE
Cosmos 2333 Rocket 3.9 19:22:57 10° SSE 19:24:21 16° SSE 19:24:21 16° SSE
Cosmos 2227 4.2 19:22:13 10° NNW 19:27:52 85° WSW 19:33:05 12° SSE
Cosmos 1908 Rocket 4.1 19:24:25 10° SSW 19:28:40 58° W 19:32:57 10° N
Cosmos 1428 Rocket 4.4 19:23:57 10° S 19:30:05 73° E 19:36:19 10° N
CSL-04 Debris 4.4 19:28:02 30° SE 19:30:22 48° ENE 19:35:32 10° N
Helios 1B 4.4 19:27:39 10° NNE 19:32:00 79° ESE 19:36:18 10° S
Cosmos 1627 Rocket 4.3 19:27:31 10° S 19:33:34 70° E 19:39:39 10° NNE
Cosmos 2195 Rocket 4.4 19:27:36 10° S 19:33:48 82° E 19:40:08 10° N
Cosmos 2360 Rocket 2.2 19:30:19 10° S 19:35:45 52° ESE 19:41:13 10° NNE
Cosmos 1782 Rocket 3.4 19:32:30 10° S 19:36:50 87° E 19:41:13 10° N
YAOGAN 1 3.8 19:36:53 10° S 19:40:59 42° W 19:45:06 10° NNW
USA 81 4.0 19:35:55 10° N 19:41:09 62° E 19:43:22 34° SSE
Cosmos 1025 Rocket 3.0 19:40:47 10° N 19:44:51 60° ENE 19:44:51 60° ENE
Okean O Rocket 2.5 19:40:53 10° S 19:45:04 48° W 19:49:20 10° NNW
Cosmos 968 Rocket 4.5 19:41:55 10° SW 19:46:58 47° WNW 19:52:02 10° N
Lacrosse 4 Rocket 1.5 19:44:11 10° SSW 19:48:14 72° WNW 19:50:17 28° NNE
Cosmos 2026 Rocket 3.9 19:44:04 10° S 19:50:07 88° W 19:56:13 10° N
USA 186 3.7 19:55:51 24° N 19:55:51 24° N 19:57:20 10° N
CSL-04 Rocket 3.5 19:55:05 54° SE 19:56:14 73° ENE 20:01:38 10° N
BREEZE-M R/B 4.4 19:56:24 10° W 19:58:02 32° NW 19:58:02 32° NW
Meteor 2-5 Rocket 4.1 19:55:01 10° NNW 20:00:28 63° W 20:05:38 11° S
Cosmos 1470 4.2 19:58:18 10° SW 20:01:51 36° WNW 20:05:26 10° N
Landsat 7 4.5 20:04:06 41° NNE 20:04:06 41° NNE 20:07:24 10° N
Cosmos 2322 Rocket 2.7 19:59:11 10° SW 20:04:47 60° WNW 20:10:27 10° NNE
Cosmos 1553 Rocket 4.0 19:59:39 10° N 20:06:00 63° E 20:06:34 60° ESE
COSMOS 2455 4.4 20:01:31 10° S 20:03:25 21° S 20:03:25 21° S
Cosmos 1975 Rocket 3.4 20:05:59 10° NNW 20:10:19 64° W 20:10:19 64° W
NOSS 3-3 (A) 3.7 20:13:02 10° SW 20:18:31 83° NW 20:20:03 52° NNE
NOSS 3-3 (C) 3.7 20:13:08 10° SW 20:18:36 84° WNW 20:19:58 56° NNE
Aureole 1 Rocket 4.0 20:15:00 10° SSW 20:22:42 82° ESE 20:28:53 10° NNE
IRS-1C Rocket 4.2 20:24:43 73° W 20:24:43 73° W 20:29:52 10° NNW
Cosmos 1844 Rocket 2.9 20:29:24 10° NNW 20:34:40 66° W 20:34:40 66° W
Resurs 01 Rocket 4.1 20:38:53 15° N 20:38:53 15° N 20:39:43 10° N
SL-16 R/B 4.2 20:30:55 10° WSW 20:35:34 25° NW 20:40:14 10° N
Cosmos 2278 Rocket 4.4 20:46:15 10° N 20:47:32 15° NNE 20:47:32 15° NNE
ATLAS 5 CENTAUR R/B 4.4 20:43:14 10° WSW 20:57:05 22° SSW 20:58:18 21° SSW
Cosmos 2360 Rocket 4.2 21:15:32 10° WSW 21:20:02 24° NW 21:24:33 10° N
